Location: Caltech
(34.1382°N, 118.1253°W)
Time: 13:01:05
(UTC-07:00)

Cosmos 1758 Rocket - Visible Passes

Search period start: 06 July 2015 00:00
Search period end: 16 July 2015 00:00
Orbit: 602 x 638 km, 82.5° (Epoch: 06 July)

Date Brightness Start Highest point End Pass type
(mag) Time Alt. Az. Time Alt. Az. Time Alt. Az.
06 Jul 6.3 02:28:17 10° NE 02:29:45 12° ENE 02:31:29 10° E visible
06 Jul 3.9 04:03:52 10° NNW 04:07:59 44° W 04:09:12 34° SW visible
07 Jul 5.5 02:44:16 10° NNE 02:47:40 23° ENE 02:49:01 20° ESE visible
07 Jul 4.8 04:22:08 10° NW 04:25:31 22° W 04:26:09 21° WSW visible
08 Jul 4.3 03:01:19 10° N 03:05:28 46° E 03:06:00 43° ESE visible
08 Jul 5.6 04:41:43 10° WNW 04:43:00 11° W 04:43:08 11° W visible
09 Jul 3.4 03:18:47 10° N 03:23:02 84° WNW 03:23:02 84° WNW visible
10 Jul 6.2 02:00:36 10° NE 02:02:31 13° ENE 02:02:59 13° E visible
10 Jul 4.2 03:36:38 10° NNW 03:40:07 38° WNW 03:40:07 38° WNW visible
11 Jul 5.4 02:16:52 10° NNE 02:20:05 25° ENE 02:20:05 25° ENE visible
11 Jul 5.2 03:54:58 10° NW 03:57:14 19° WNW 03:57:14 19° WNW visible
12 Jul 4.7 02:33:58 10° N 02:37:13 42° NE 02:37:13 42° NE visible
13 Jul 4.5 02:51:30 10° N 02:54:23 41° NNW 02:54:23 41° NNW visible
14 Jul 6.2 01:33:00 10° NE 01:34:26 14° ENE 01:34:26 14° ENE visible
14 Jul 5.1 03:09:23 10° NNW 03:11:35 25° NW 03:11:35 25° NW visible
15 Jul 5.7 01:49:27 10° NNE 01:51:40 22° NE 01:51:40 22° NE visible
15 Jul 5.8 03:27:50 10° NW 03:28:49 14° NW 03:28:49 14° NW visible
